FENGYUN 1C DEB

Satellite information

Favourite Embed

Satellite Type and Status

DEBRISIN ORBIT

Key statistics

Satellite FENGYUN 1C DEB at a glance.

Uptime

9615

Days in orbit

Revolutions

≈ 14.5

Per day

Orbit

SSO

Sun Synchronous Orbit

Inclination

98.7

Latest

Satellite identification and parameters

Extended collection of information and parameters for FENGYUN 1C DEB.

Object identification

Identified? True

Debris? True

Object name: FENGYUN 1C DEB

International designator: 1999-025ATA

Object number (NORAD): 30740

Object ID (CCSDS): 30740

Country: PEOPLES REPUBLIC OF CHINA (PRC)

Current information (Y/N): Y

RCS size: SMALL

Orbital parameters

Period: 99.37 minutes

Inclination: 98.688 deg

SMA: 7106.633 km

Apoapsis: 752.012 km

Periapsis: 704.984 km

RAAN: 348.6798 deg

Eccentricy: 0.00330878

Argument of periapsis: 79.538 deg

Mean anomaly: 280.9539 deg

Mean motion: 14.49128619 rev/day

Mean motion (dot): 0.00017276 rev/day2

B* drag term: 0.0045135391 1/REarth

Two-line elements (TLE)

Creation date: Sept. 4, 2025, 4:29 a.m.

Reference frame: TEME

Reference center: EARTH

Epoch: Sept. 3, 2025, 5:57 p.m. UTC

TLE line 0: 0 FENGYUN 1C DEB

TLE line 1: 1 30740U 99025ATA 25246.74857050 .00017276 00000-0 45135-2 0 9997

TLE line 2: 2 30740 98.6880 348.6798 0033088 79.5380 280.9539 14.49128619961988

Live tracking on map

Real-time ground track for satellite FENGYUN 1C DEB.

In-orbit conjunctions

A list of the most updated potential collisions computed for object FENGYUN 1C DEB.

Target Orbit TCA Probability of collision Miss distance Type
COSMOS 2251 DEB LEO 2025-05-29 19:56:11 0.0002055601 85.0 (m) DEBRIS
THOR ABLESTAR DEB LEO 2025-03-30 08:21:21 0.0004356667 61.0 (m) DEBRIS
COSMOS 2251 DEB LEO 2024-11-11 20:19:36 0.0004178387 144.0 (m) DEBRIS
IRIDIUM 17 LEO 2024-06-08 03:26:00 0.0004924277 207.0 (m) PAYLOAD

Associated space launch

Chinese polar orbiting meteorological satellite

FENGYUN 1C DEB was lifted into orbit during the mission ‘Long March 4B | Feng Yun 1C’, on board a Long March 4B space rocket.

The launch took place on May 10, 1999, 1:33 a.m. from Launch Complex 7.

For more information about the launch, click the button.

Launch to space Long March 4B | Feng Yun 1C
Long March 4B | Feng Yun 1C

Agency: N/A

Status: Launch Successful

Launch date: May 10, 1999, 1:33 a.m. UTC

Rocket: Long March 4B

Launch pad: Launch Complex 7

Location: Taiyuan Satellite Launch Center, People's Republic of China

...

Latest news about this satellite

There are no fresh news available about this satellite. Check back as we update our databases every day.


Newsletter sign-up

Weekly statistics, charts and insights to help you stay on top of the space industry.